| time (UTC) | temp F | wind direction | speed MPH | gust MPH | rain 1hr in | rain 24hr in | rain mn in | humidity % | barometer mb |
| 20260510053056 | 40 | 288 | 3.0 | 8.0 | 0.00 | 0.00 | 0.00 | 64 | 1013.8 |
| 20260510051555 | 40 | 299 | 1.0 | 7.0 | 0.00 | 0.00 | 0.00 | 63 | 1013.7 |
| 20260510050054 | 40 | 0 | 1.0 | 6.0 | 0.00 | 0.00 | 0.00 | 62 | 1013.6 |
| 20260510044552 | 40 | 0 | 1.0 | 6.0 | 0.00 | 0.00 | 0.00 | 61 | 1013.6 |
| 20260510043100 | 40 | 266 | 1.0 | 4.0 | 0.00 | 0.00 | 0.00 | 62 | 1013.6 |
| 20260510041551 | 40 | 0 | 1.0 | 7.0 | 0.00 | 0.00 | 0.00 | 60 | 1013.5 |
| 20260510040053 | 39 | 0 | 0.0 | 3.0 | 0.00 | 0.00 | 0.00 | 61 | 1013.4 |
| 20260510034556 | 38 | 298 | 0.0 | 2.0 | 0.00 | 0.00 | 0.00 | 61 | 1013.2 |
| 20260510033112 | 38 | 299 | 0.0 | 6.0 | 0.00 | 0.00 | 0.00 | 61 | 1013.2 |
| 20260510031558 | 38 | 0 | 0.0 | 1.0 | 0.00 | 0.00 | 0.00 | 62 | 1013.2 |
| 20260510030052 | 38 | 0 | 0.0 | 2.0 | 0.00 | 0.00 | 0.00 | 61 | 1012.9 |
| 20260510024556 | 38 | 0 | 0.0 | 2.0 | 0.00 | 0.00 | 0.00 | 60 | 1013.0 |
| 20260510023053 | 39 | 236 | 0.0 | 3.0 | 0.00 | 0.00 | 0.00 | 58 | 1012.9 |
| 20260510021551 | 40 | 0 | 0.0 | 2.0 | 0.00 | 0.00 | 0.00 | 56 | 1012.6 |
| 20260510020053 | 41 | 0 | 0.0 | 2.0 | 0.00 | 0.00 | 0.00 | 55 | 1012.5 |
| 20260510014551 | 42 | 0 | 1.0 | 6.0 | 0.00 | 0.00 | 0.00 | 54 | 1012.3 |
| 20260510013055 | 42 | 277 | 0.0 | 4.0 | 0.00 | 0.00 | 0.00 | 52 | 1012.1 |
| 20260510011559 | 43 | 259 | 1.0 | 7.0 | 0.00 | 0.00 | 0.00 | 52 | 1011.8 |
| 20260510010052 | 44 | 173 | 2.0 | 7.0 | 0.00 | 0.00 | 0.00 | 51 | 1011.9 |
| 20260510004556 | 44 | 261 | 3.0 | 9.0 | 0.00 | 0.00 | 0.00 | 49 | 1011.5 |
| 20260510003116 | 45 | 148 | 3.0 | 15.0 | 0.00 | 0.00 | 0.00 | 48 | 1011.7 |
| 20260510001556 | 45 | 323 | 3.0 | 14.0 | 0.00 | 0.00 | 0.00 | 47 | 1011.3 |
| 20260509234603 | 46 | 344 | 5.0 | 13.0 | 0.00 | 0.00 | 0.00 | 46 | 1011.3 |
| 20260509233050 | 46 | 15 | 3.0 | 14.0 | 0.00 | 0.00 | 0.00 | 46 | 1011.1 |
| 20260509231555 | 47 | 0 | 3.0 | 17.0 | 0.00 | 0.00 | 0.00 | 45 | 1010.8 |
| 20260509230057 | 48 | 336 | 6.0 | 14.0 | 0.00 | 0.00 | 0.00 | 44 | 1010.7 |
| 20260509224553 | 46 | 63 | 5.0 | 15.0 | 0.00 | 0.00 | 0.00 | 45 | 1010.9 |
| 20260509223050 | 46 | 36 | 5.0 | 19.0 | 0.00 | 0.00 | 0.00 | 45 | 1010.7 |
| 20260509221555 | 47 | 14 | 3.0 | 12.0 | 0.00 | 0.00 | 0.00 | 46 | 1010.5 |
| 20260509220057 | 47 | 11 | 5.0 | 16.0 | 0.00 | 0.00 | 0.00 | 44 | 1010.2 |
| 20260509214558 | 47 | 15 | 3.0 | 14.0 | 0.00 | 0.00 | 0.00 | 47 | 1010.2 |
| 20260509213059 | 47 | 273 | 5.0 | 13.0 | 0.00 | 0.00 | 0.00 | 47 | 1010.0 |
| 20260509211601 | 48 | 265 | 2.0 | 10.0 | 0.00 | 0.00 | 0.00 | 46 | 1009.7 |
| 20260509210101 | 48 | 343 | 5.0 | 15.0 | 0.00 | 0.00 | 0.00 | 43 | 1009.5 |
| 20260509204554 | 48 | 333 | 5.0 | 17.0 | 0.00 | 0.00 | 0.00 | 45 | 1009.3 |
| 20260509203052 | 48 | 294 | 4.0 | 14.0 | 0.00 | 0.00 | 0.00 | 44 | 1009.1 |
| 20260509201552 | 48 | 315 | 7.0 | 16.0 | 0.00 | 0.00 | 0.00 | 43 | 1008.9 |
| 20260509200057 | 49 | 237 | 4.0 | 13.0 | 0.00 | 0.00 | 0.00 | 43 | 1008.8 |
| 20260509194552 | 48 | 146 | 4.0 | 18.0 | 0.00 | 0.00 | 0.00 | 44 | 1008.6 |
| 20260509193053 | 49 | 350 | 3.0 | 17.0 | 0.00 | 0.00 | 0.00 | 43 | 1008.6 |
| 20260509191550 | 48 | 37 | 5.0 | 15.0 | 0.00 | 0.00 | 0.00 | 45 | 1008.6 |
| 20260509190051 | 47 | 342 | 5.0 | 14.0 | 0.00 | 0.00 | 0.00 | 45 | 1008.4 |
| 20260509184556 | 47 | 333 | 8.0 | 15.0 | 0.00 | 0.00 | 0.00 | 45 | 1008.1 |
| 20260509183137 | 48 | 350 | 5.0 | 12.0 | 0.00 | 0.00 | 0.00 | 47 | 1008.4 |
| 20260509181612 | 46 | 341 | 4.0 | 11.0 | 0.00 | 0.00 | 0.00 | 48 | 1008.1 |
| 20260509180101 | 44 | 29 | 5.0 | 18.0 | 0.00 | 0.00 | 0.00 | 51 | 1008.2 |
| 20260509174556 | 44 | 323 | 7.0 | 21.0 | 0.00 | 0.00 | 0.00 | 47 | 1008.0 |
| 20260509173058 | 44 | 270 | 6.0 | 16.0 | 0.00 | 0.00 | 0.00 | 50 | 1008.1 |
| 20260509171559 | 44 | 287 | 4.0 | 12.0 | 0.00 | 0.00 | 0.00 | 49 | 1007.9 |
| 20260509170055 | 45 | 17 | 4.0 | 15.0 | 0.00 | 0.00 | 0.00 | 47 | 1007.8 |
| 20260509164600 | 43 | 280 | 4.0 | 19.0 | 0.00 | 0.00 | 0.00 | 49 | 1007.6 |
| 20260509163057 | 43 | 31 | 4.0 | 17.0 | 0.00 | 0.00 | 0.00 | 49 | 1007.5 |
| 20260509161552 | 43 | 5 | 5.0 | 18.0 | 0.00 | 0.00 | 0.00 | 49 | 1007.3 |
| 20260509160056 | 43 | 294 | 4.0 | 21.0 | 0.00 | 0.00 | 0.00 | 51 | 1007.1 |
| 20260509154557 | 42 | 21 | 8.0 | 19.0 | 0.00 | 0.00 | 0.00 | 50 | 1007.0 |
| 20260509153053 | 42 | 360 | 8.0 | 24.0 | 0.00 | 0.00 | 0.00 | 50 | 1006.8 |
| 20260509151552 | 42 | 30 | 9.0 | 21.0 | 0.00 | 0.00 | 0.00 | 51 | 1006.3 |
| 20260509150051 | 42 | 298 | 5.0 | 20.0 | 0.00 | 0.00 | 0.00 | 53 | 1006.0 |
| 20260509144551 | 42 | 304 | 7.0 | 17.0 | 0.00 | 0.00 | 0.00 | 52 | 1006.1 |
| 20260509143052 | 43 | 328 | 9.0 | 22.0 | 0.00 | 0.00 | 0.00 | 53 | 1005.9 |
| 20260509141603 | 43 | 15 | 5.0 | 21.0 | 0.00 | 0.00 | 0.00 | 52 | 1005.6 |
| 20260509140059 | 44 | 360 | 4.0 | 16.0 | 0.00 | 0.00 | 0.00 | 56 | 1005.4 |
| 20260509134552 | 42 | 12 | 4.0 | 18.0 | 0.00 | 0.00 | 0.00 | 60 | 1005.3 |
| 20260509133050 | 41 | 22 | 6.0 | 18.0 | 0.00 | 0.00 | 0.00 | 60 | 1005.0 |
| 20260509131551 | 42 | 24 | 3.0 | 14.0 | 0.00 | 0.00 | 0.00 | 58 | 1004.8 |
| 20260509130053 | 41 | 355 | 5.0 | 13.0 | 0.00 | 0.00 | 0.00 | 59 | 1004.6 |
| 20260509124556 | 41 | 263 | 3.0 | 12.0 | 0.00 | 0.00 | 0.00 | 57 | 1004.2 |
| 20260509123054 | 40 | 319 | 1.0 | 13.0 | 0.00 | 0.00 | 0.00 | 57 | 1003.9 |
| 20260509121552 | 39 | 350 | 2.0 | 9.0 | 0.00 | 0.00 | 0.00 | 57 | 1003.8 |
| 20260509120054 | 38 | 24 | 0.0 | 12.0 | 0.00 | 0.00 | 0.00 | 58 | 1003.5 |
| 20260509114557 | 39 | 329 | 0.0 | 8.0 | 0.00 | 0.00 | 0.00 | 57 | 1003.4 |
| 20260509113053 | 39 | 13 | 1.0 | 10.0 | 0.00 | 0.00 | 0.00 | 56 | 1003.2 |
| 20260509111551 | 38 | 18 | 1.0 | 7.0 | 0.00 | 0.00 | 0.00 | 57 | 1003.1 |
| 20260509110054 | 38 | 0 | 1.0 | 3.0 | 0.00 | 0.00 | 0.00 | 56 | 1003.0 |
| 20260509104554 | 38 | 0 | 0.0 | 4.0 | 0.00 | 0.00 | 0.00 | 57 | 1002.9 |
| 20260509103052 | 39 | 281 | 1.0 | 7.0 | 0.00 | 0.00 | 0.00 | 54 | 1002.8 |
| 20260509101555 | 39 | 344 | 1.0 | 6.0 | 0.00 | 0.00 | 0.00 | 52 | 1002.6 |
| 20260509100050 | 40 | 16 | 1.0 | 6.0 | 0.00 | 0.00 | 0.00 | 51 | 1002.6 |
| 20260509094549 | 40 | 257 | 1.0 | 6.0 | 0.00 | 0.00 | 0.00 | 50 | 1002.3 |
| 20260509093100 | 40 | 187 | 0.0 | 4.0 | 0.00 | 0.00 | 0.00 | 51 | 1002.3 |
| 20260509091557 | 40 | 5 | 1.0 | 5.0 | 0.00 | 0.00 | 0.00 | 49 | 1002.3 |
| 20260509090056 | 40 | 0 | 0.0 | 4.0 | 0.00 | 0.00 | 0.00 | 51 | 1002.1 |
| 20260509084556 | 39 | 0 | 0.0 | 3.0 | 0.00 | 0.00 | 0.00 | 51 | 1001.7 |
| 20260509083048 | 39 | 0 | 0.0 | 1.0 | 0.00 | 0.00 | 0.00 | 53 | 1001.5 |
| 20260509081555 | 40 | 0 | 0.0 | 2.0 | 0.00 | 0.00 | 0.00 | 50 | 1001.4 |
| 20260509080057 | 41 | 0 | 0.0 | 1.0 | 0.00 | 0.00 | 0.00 | 48 | 1001.2 |
| 20260509074556 | 41 | 0 | 0.0 | 2.0 | 0.00 | 0.00 | 0.00 | 47 | 1001.4 |
| 20260509073055 | 42 | 11 | 0.0 | 3.0 | 0.00 | 0.00 | 0.00 | 46 | 1001.4 |
| 20260509071547 | 42 | 0 | 1.0 | 5.0 | 0.00 | 0.00 | 0.00 | 46 | 1001.4 |
| 20260509070057 | 42 | 0 | 0.0 | 0.0 | 0.00 | 0.00 | 0.00 | 45 | 1001.4 |
| 20260509064557 | 43 | 0 | 0.0 | 3.0 | 0.00 | 0.00 | 0.00 | 45 | 1001.4 |
| 20260509063055 | 43 | 0 | 0.0 | 1.0 | 0.00 | 0.00 | 0.00 | 46 | 1001.3 |
| 20260509061552 | 44 | 0 | 0.0 | 0.0 | 0.00 | 0.00 | 0.00 | 45 | 1001.5 |
| 20260509060056 | 44 | 0 | 0.0 | 4.0 | 0.00 | 0.00 | 0.00 | 45 | 1001.5 |
| 20260509054553 | 45 | 14 | 1.0 | 5.0 | 0.00 | 0.00 | 0.00 | 44 | 1001.5 |